Time,TemperatureF,DewpointF,PressureIn,WindDirection,WindDirectionDegrees,WindSpeedMPH,WindSpeedGustMPH,Humidity,HourlyPrecipIn,Conditions,Clouds,dailyrainin,SolarRadiationWatts/m^2,SoftwareType,DateUTC
2013-12-09 00:01:00,-8.7,-99.9,30.00,SW,234,6.0,7.1,74,0.00,,,0.00,0,,2013-12-09 06:01:00,
2013-12-09 00:11:00,-8.7,-99.9,30.00,West,272,6.0,8.8,74,0.00,,,0.00,0,,2013-12-09 06:11:00,
2013-12-09 00:21:00,-8.2,-99.9,30.00,West,265,7.0,10.5,74,0.00,,,0.00,0,,2013-12-09 06:21:00,
2013-12-09 00:31:00,-7.9,-99.9,30.00,WSW,256,8.0,12.1,74,0.00,,,0.00,0,,2013-12-09 06:31:00,
2013-12-09 00:41:00,-7.7,-99.9,29.99,WSW,246,10.0,15.5,75,0.00,,,0.00,0,,2013-12-09 06:41:00,
2013-12-09 00:51:00,-7.8,-99.9,29.99,West,274,6.0,8.8,76,0.00,,,0.00,0,,2013-12-09 06:51:00,
2013-12-09 01:01:00,-7.6,-99.9,30.00,WSW,257,3.0,5.4,77,0.00,,,0.00,0,,2013-12-09 07:01:00,
2013-12-09 01:11:00,-7.2,-99.9,29.99,WSW,258,5.0,8.8,77,0.00,,,0.00,0,,2013-12-09 07:11:00,
2013-12-09 01:21:00,-7.1,-99.9,30.00,West,266,6.0,10.5,76,0.00,,,0.00,0,,2013-12-09 07:21:00,
2013-12-09 01:31:00,-7.2,-99.9,30.00,WNW,296,4.0,5.4,76,0.00,,,0.00,0,,2013-12-09 07:31:00,
2013-12-09 01:41:00,-6.9,-99.9,30.00,NW,305,7.0,10.5,76,0.00,,,0.00,0,,2013-12-09 07:41:00,
2013-12-09 01:51:00,-6.5,-99.9,30.00,WNW,296,7.0,10.5,76,0.00,,,0.00,0,,2013-12-09 07:51:00,
2013-12-09 02:01:00,-6.1,-99.9,30.01,West,280,10.0,13.8,75,0.00,,,0.00,0,,2013-12-09 08:01:00,
2013-12-09 02:11:00,-5.9,-99.9,30.01,WNW,284,9.0,13.8,74,0.00,,,0.00,0,,2013-12-09 08:11:00,
2013-12-09 02:21:00,-6.0,-99.9,30.01,NW,304,11.0,15.5,74,0.00,,,0.00,0,,2013-12-09 08:21:00,
2013-12-09 02:31:00,-6.4,-99.9,30.01,WNW,287,10.0,15.5,75,0.00,,,0.00,0,,2013-12-09 08:31:00,
2013-12-09 02:41:00,-6.5,-99.9,30.01,WNW,301,13.0,20.5,75,0.00,,,0.00,0,,2013-12-09 08:41:00,
2013-12-09 02:51:00,-6.5,-99.9,30.01,WNW,300,12.0,17.2,75,0.00,,,0.00,0,,2013-12-09 08:51:00,
2013-12-09 03:01:00,-6.6,-99.9,30.01,West,274,8.0,10.5,75,0.00,,,0.00,0,,2013-12-09 09:01:00,
2013-12-09 03:11:00,-6.9,-99.9,30.01,WNW,292,10.0,17.2,75,0.00,,,0.00,0,,2013-12-09 09:11:00,
2013-12-09 03:21:00,-7.3,-99.9,30.00,West,281,9.0,15.5,75,0.00,,,0.00,0,,2013-12-09 09:21:00,
2013-12-09 03:31:00,-7.7,-99.9,30.00,WNW,299,9.0,15.5,75,0.00,,,0.00,0,,2013-12-09 09:31:00,
2013-12-09 03:41:00,-8.1,-99.9,30.00,NW,321,11.0,17.2,76,0.00,,,0.00,0,,2013-12-09 09:41:00,
2013-12-09 03:51:00,-8.5,-99.9,30.00,West,260,7.0,13.8,76,0.00,,,0.00,0,,2013-12-09 09:51:00,
2013-12-09 04:01:00,-8.9,-99.9,30.00,NW,322,10.0,13.8,76,0.00,,,0.00,0,,2013-12-09 10:01:00,
2013-12-09 04:11:00,-9.2,-99.9,30.00,WNW,295,9.0,13.8,76,0.00,,,0.00,0,,2013-12-09 10:11:00,
2013-12-09 04:21:00,-9.4,-99.9,30.00,WNW,293,11.0,17.2,76,0.00,,,0.00,0,,2013-12-09 10:21:00,
2013-12-09 04:31:00,-9.5,-99.9,30.00,West,277,8.0,12.1,76,0.00,,,0.00,0,,2013-12-09 10:31:00,
2013-12-09 04:41:00,-9.8,-99.9,30.00,West,261,8.0,12.1,76,0.00,,,0.00,0,,2013-12-09 10:41:00,
2013-12-09 04:51:00,-10.1,-99.9,30.01,WSW,253,4.0,8.8,76,0.00,,,0.00,0,,2013-12-09 10:51:00,
2013-12-09 05:01:00,-10.3,-99.9,30.01,West,264,4.0,5.4,76,0.00,,,0.00,0,,2013-12-09 11:01:00,
2013-12-09 05:11:00,-10.5,-99.9,30.01,West,267,4.0,7.1,77,0.00,,,0.00,0,,2013-12-09 11:11:00,
2013-12-09 05:21:00,-10.6,-99.9,30.01,West,261,5.0,7.1,77,0.00,,,0.00,0,,2013-12-09 11:21:00,
2013-12-09 05:31:00,-10.6,-99.9,30.00,WNW,287,6.0,10.5,76,0.00,,,0.00,0,,2013-12-09 11:31:00,
2013-12-09 05:41:00,-10.3,-99.9,30.01,NW,319,7.0,10.5,76,0.00,,,0.00,0,,2013-12-09 11:41:00,
2013-12-09 05:51:00,-10.5,-99.9,30.02,WNW,303,9.0,15.5,76,0.00,,,0.00,0,,2013-12-09 11:51:00,
2013-12-09 06:01:00,-10.6,-99.9,30.01,NW,312,5.0,8.8,76,0.00,,,0.00,0,,2013-12-09 12:01:00,
2013-12-09 06:11:00,-10.6,-99.9,30.01,WNW,289,7.0,10.5,76,0.00,,,0.00,0,,2013-12-09 12:11:00,
2013-12-09 06:21:00,-10.6,-99.9,30.02,WSW,252,7.0,8.8,76,0.00,,,0.00,0,,2013-12-09 12:21:00,
2013-12-09 06:31:00,-10.5,-99.9,30.02,WNW,297,9.0,13.8,76,0.00,,,0.00,0,,2013-12-09 12:31:00,
2013-12-09 06:41:00,-10.8,-99.9,30.02,WNW,296,6.0,10.5,76,0.00,,,0.00,0,,2013-12-09 12:41:00,
2013-12-09 06:51:00,-10.9,-99.9,30.02,West,267,6.0,10.5,76,0.00,,,0.00,0,,2013-12-09 12:51:00,
2013-12-09 07:01:00,-10.8,-99.9,30.02,WNW,303,6.0,10.5,76,0.00,,,0.00,0,,2013-12-09 13:01:00,
2013-12-09 07:11:00,-10.9,-99.9,30.02,West,267,8.0,10.5,75,0.00,,,0.00,0,,2013-12-09 13:11:00,
2013-12-09 07:21:00,-11.1,-99.9,30.02,WNW,282,9.0,13.8,75,0.00,,,0.00,0,,2013-12-09 13:21:00,
2013-12-09 07:31:00,-11.3,-99.9,30.02,West,268,6.0,8.8,75,0.00,,,0.00,0,,2013-12-09 13:31:00,
2013-12-09 07:41:00,-11.6,-99.9,30.01,WNW,287,5.0,8.8,76,0.00,,,0.00,0.217,,2013-12-09 13:41:00,
2013-12-09 07:51:00,-11.8,-99.9,30.01,WSW,256,6.0,8.8,77,0.00,,,0.00,0.931,,2013-12-09 13:51:00,
2013-12-09 08:01:00,-11.5,-99.9,30.01,West,279,6.0,10.5,77,0.00,,,0.00,2.919,,2013-12-09 14:01:00,
2013-12-09 08:11:00,-11.8,-99.9,30.01,West,263,5.0,7.1,76,0.00,,,0.00,6.133,,2013-12-09 14:11:00,
2013-12-09 08:21:00,-12.2,-99.9,30.02,West,276,5.0,7.1,76,0.00,,,0.00,10.06,,2013-12-09 14:21:00,
2013-12-09 08:31:00,-13.0,-99.9,30.02,WSW,245,6.0,8.8,76,0.00,,,0.00,13.66,,2013-12-09 14:31:00,
2013-12-09 08:41:00,-13.3,-99.9,30.02,WSW,254,6.0,8.8,76,0.00,,,0.00,16.96,,2013-12-09 14:41:00,
2013-12-09 08:51:00,-13.1,-99.9,30.01,West,261,7.0,10.5,76,0.00,,,0.00,23.77,,2013-12-09 14:51:00,
2013-12-09 09:01:00,-12.2,-99.9,30.02,WSW,244,6.0,8.8,75,0.00,,,0.00,50.06,,2013-12-09 15:01:00,
2013-12-09 09:11:00,-11.8,-99.9,30.02,WSW,239,7.0,8.8,74,0.00,,,0.00,118.6,,2013-12-09 15:11:00,
2013-12-09 09:21:00,-12.2,-99.9,30.03,SW,229,8.0,10.5,74,0.00,,,0.00,148.9,,2013-12-09 15:21:00,
2013-12-09 09:31:00,-11.5,-99.9,30.03,West,259,7.0,10.5,74,0.00,,,0.00,172,,2013-12-09 15:31:00,
2013-12-09 09:41:00,-10.9,-99.9,30.03,WSW,249,8.0,10.5,73,0.00,,,0.00,194.3,,2013-12-09 15:41:00,
2013-12-09 09:51:00,-10.6,-99.9,30.03,SW,219,7.0,10.5,72,0.00,,,0.00,214.9,,2013-12-09 15:51:00,
2013-12-09 10:01:00,-10.4,-99.9,30.03,WSW,252,7.0,12.1,72,0.00,,,0.00,235.6,,2013-12-09 16:01:00,
2013-12-09 10:11:00,-10.0,-99.9,30.03,WSW,248,8.0,10.5,72,0.00,,,0.00,254.3,,2013-12-09 16:11:00,
2013-12-09 10:21:00,-9.9,-99.9,30.03,SW,222,9.0,12.1,72,0.00,,,0.00,271.8,,2013-12-09 16:21:00,
2013-12-09 10:31:00,-9.4,-99.9,30.03,WSW,250,9.0,10.5,73,0.00,,,0.00,288.7,,2013-12-09 16:31:00,
2013-12-09 10:41:00,-8.6,-99.9,30.03,SW,230,6.0,10.5,72,0.00,,,0.00,304.6,,2013-12-09 16:41:00,
2013-12-09 10:51:00,-8.1,-99.9,30.02,WSW,254,10.0,13.8,72,0.00,,,0.00,321.7,,2013-12-09 16:51:00,
2013-12-09 11:01:00,-7.7,-99.9,30.02,WSW,246,13.0,18.9,72,0.00,,,0.00,332.6,,2013-12-09 17:01:00,
2013-12-09 11:11:00,-7.7,-99.9,30.02,WSW,249,8.0,13.8,72,0.00,,,0.00,345.6,,2013-12-09 17:11:00,
2013-12-09 11:21:00,-7.4,-99.9,30.01,West,259,9.0,12.1,72,0.00,,,0.00,354,,2013-12-09 17:21:00,
2013-12-09 11:31:00,-7.0,-99.9,30.00,WSW,252,10.0,13.8,72,0.00,,,0.00,360.2,,2013-12-09 17:31:00,
2013-12-09 11:41:00,-6.5,-99.9,29.99,WSW,243,9.0,13.8,72,0.00,,,0.00,366,,2013-12-09 17:41:00,
2013-12-09 11:51:00,-6.1,-99.9,29.98,West,277,5.0,7.1,73,0.00,,,0.00,316.6,,2013-12-09 17:51:00,
2013-12-09 12:01:00,-5.9,-99.9,29.97,WSW,250,11.0,13.8,72,0.00,,,0.00,368.4,,2013-12-09 18:01:00,
2013-12-09 12:11:00,-5.5,-99.9,29.97,WSW,245,8.0,12.1,72,0.00,,,0.00,371.5,,2013-12-09 18:11:00,
2013-12-09 12:21:00,-5.4,-99.9,29.96,SW,230,8.0,10.5,72,0.00,,,0.00,370.6,,2013-12-09 18:21:00,
2013-12-09 12:31:00,-4.9,-99.9,29.95,SW,229,11.0,13.8,72,0.00,,,0.00,334.4,,2013-12-09 18:31:00,
2013-12-09 12:41:00,-4.3,-99.9,29.94,SW,230,11.0,15.5,72,0.00,,,0.00,369.8,,2013-12-09 18:41:00,
2013-12-09 12:51:00,-4.1,-99.9,29.93,WSW,249,9.0,12.1,72,0.00,,,0.00,407,,2013-12-09 18:51:00,
2013-12-09 13:01:00,-3.2,-99.9,29.93,SW,222,6.0,10.5,70,0.00,,,0.00,354.3,,2013-12-09 19:01:00,
2013-12-09 13:11:00,-3.2,-99.9,29.92,WSW,252,10.0,12.1,69,0.00,,,0.00,339.9,,2013-12-09 19:11:00,
2013-12-09 13:21:00,-2.5,-99.9,29.93,SSW,211,6.0,8.8,69,0.00,,,0.00,326.8,,2013-12-09 19:21:00,
2013-12-09 13:31:00,-2.9,-99.9,29.92,SSW,198,7.0,12.1,70,0.00,,,0.00,312.1,,2013-12-09 19:31:00,
2013-12-09 13:41:00,-3.4,-99.9,29.92,SW,230,11.0,15.5,69,0.00,,,0.00,307.3,,2013-12-09 19:41:00,
2013-12-09 13:51:00,-3.4,-99.9,29.92,SW,221,6.0,10.5,70,0.00,,,0.00,167,,2013-12-09 19:51:00,
2013-12-09 14:01:00,-2.6,-99.9,29.92,SW,221,6.0,8.8,69,0.00,,,0.00,206.6,,2013-12-09 20:01:00,
2013-12-09 14:11:00,-2.2,-99.9,29.91,SSW,209,7.0,10.5,69,0.00,,,0.00,246.3,,2013-12-09 20:11:00,
2013-12-09 14:21:00,-1.7,-99.9,29.90,SSW,195,5.0,8.8,68,0.00,,,0.00,137.8,,2013-12-09 20:21:00,
2013-12-09 14:31:00,-2.1,-99.9,29.90,SW,221,7.0,8.8,69,0.00,,,0.00,156.3,,2013-12-09 20:31:00,
2013-12-09 14:41:00,-1.8,-99.9,29.89,SSW,194,5.0,8.8,70,0.00,,,0.00,150.9,,2013-12-09 20:41:00,
2013-12-09 14:51:00,-0.9,-99.9,29.88,SSW,195,6.0,8.8,70,0.00,,,0.00,136.6,,2013-12-09 20:51:00,
2013-12-09 15:01:00,-0.7,-99.9,29.86,SSW,192,4.0,5.4,71,0.00,,,0.00,119.3,,2013-12-09 21:01:00,
2013-12-09 15:11:00,-0.8,-99.9,29.85,SSW,196,6.0,10.5,71,0.00,,,0.00,103.1,,2013-12-09 21:11:00,
2013-12-09 15:21:00,-0.7,-99.9,29.84,SSW,195,3.0,5.4,72,0.00,,,0.00,88.1,,2013-12-09 21:21:00,
2013-12-09 15:31:00,-0.4,-99.9,29.84,South,178,5.0,7.1,72,0.00,,,0.00,79.68,,2013-12-09 21:31:00,
2013-12-09 15:41:00,-0.5,-99.9,29.83,SSE,160,4.0,5.4,73,0.00,,,0.00,61.13,,2013-12-09 21:41:00,
2013-12-09 15:51:00,-0.2,-99.9,29.83,SSE,158,5.0,7.1,73,0.00,,,0.00,73.67,,2013-12-09 21:51:00,
2013-12-09 16:01:00,-0.2,-99.9,29.82,SE,142,4.0,7.1,73,0.00,,,0.00,58.34,,2013-12-09 22:01:00,
2013-12-09 16:11:00,-0.4,-99.9,29.82,South,175,3.0,5.4,74,0.00,,,0.00,30.27,,2013-12-09 22:11:00,
2013-12-09 16:21:00,-0.6,-99.9,29.82,SE,135,3.0,7.1,75,0.00,,,0.00,11.61,,2013-12-09 22:21:00,
2013-12-09 16:31:00,-0.4,-99.9,29.82,South,183,3.0,5.4,75,0.00,,,0.00,7.944,,2013-12-09 22:31:00,
2013-12-09 16:41:00,0.2,-99.9,29.81,South,174,3.0,5.4,76,0.00,,,0.00,4.366,,2013-12-09 22:41:00,
2013-12-09 16:51:00,0.7,-99.9,29.80,SSE,148,4.0,7.1,75,0.00,,,0.00,1.823,,2013-12-09 22:51:00,
2013-12-09 17:01:00,0.9,-99.9,29.79,South,186,5.0,8.8,75,0.00,,,0.00,0.638,,2013-12-09 23:01:00,
2013-12-09 17:11:00,1.2,-99.9,29.79,South,178,4.0,7.1,75,0.00,,,0.00,0.01,,2013-12-09 23:11:00,
2013-12-09 17:21:00,1.2,-99.9,29.78,SW,227,4.0,8.8,75,0.00,,,0.00,0,,2013-12-09 23:21:00,
2013-12-09 17:31:00,1.2,-99.9,29.78,SSW,195,6.0,8.8,75,0.00,,,0.00,0,,2013-12-09 23:31:00,
2013-12-09 17:41:00,1.3,-99.9,29.78,SSW,196,4.0,7.1,75,0.00,,,0.00,0,,2013-12-09 23:41:00,
2013-12-09 17:51:00,1.5,-99.9,29.77,WSW,258,4.0,5.4,77,0.00,,,0.00,0,,2013-12-09 23:51:00,
2013-12-09 18:01:00,1.5,-99.9,29.77,South,173,7.0,12.1,79,0.00,,,0.00,0,,2013-12-10 00:01:00,
2013-12-09 18:11:00,1.7,-99.9,29.76,South,179,5.0,8.8,82,0.00,,,0.00,0,,2013-12-10 00:11:00,
2013-12-09 18:21:00,1.7,-99.9,29.75,SSW,197,5.0,10.5,82,0.00,,,0.00,0,,2013-12-10 00:21:00,
2013-12-09 18:31:00,1.9,-99.9,29.74,South,177,5.0,8.8,83,0.00,,,0.00,0,,2013-12-10 00:31:00,
2013-12-09 18:41:00,2.1,-99.9,29.74,South,176,3.0,5.4,83,0.00,,,0.00,0,,2013-12-10 00:41:00,
2013-12-09 18:51:00,2.3,-99.9,29.73,South,172,7.0,12.1,83,0.00,,,0.00,0,,2013-12-10 00:51:00,
2013-12-09 19:01:00,2.6,-99.9,29.73,SSW,212,4.0,7.1,83,0.00,,,0.00,0,,2013-12-10 01:01:00,
2013-12-09 19:11:00,2.7,-99.9,29.72,SSE,162,4.0,5.4,84,0.00,,,0.00,0,,2013-12-10 01:11:00,
2013-12-09 19:21:00,3.0,-99.9,29.72,SSE,153,2.0,3.8,84,0.00,,,0.00,0,,2013-12-10 01:21:00,
2013-12-09 19:31:00,3.3,-99.9,29.71,SSW,210,3.0,3.8,84,0.00,,,0.00,0,,2013-12-10 01:31:00,
2013-12-09 19:41:00,3.7,-99.9,29.71,SSW,203,4.0,7.1,84,0.00,,,0.00,0,,2013-12-10 01:41:00,
2013-12-09 19:51:00,4.0,-99.9,29.71,SSW,206,2.0,3.8,84,0.00,,,0.00,0,,2013-12-10 01:51:00,
2013-12-09 20:01:00,4.3,-99.9,29.71,South,191,3.0,5.4,84,0.00,,,0.00,0,,2013-12-10 02:01:00,
2013-12-09 20:11:00,4.3,-99.9,29.70,SSW,194,4.0,7.1,84,0.00,,,0.00,0,,2013-12-10 02:11:00,
2013-12-09 20:21:00,4.5,-99.9,29.70,South,186,4.0,7.1,84,0.00,,,0.00,0,,2013-12-10 02:21:00,
2013-12-09 20:31:00,4.5,-99.9,29.70,WNW,288,0.0,0.0,85,0.00,,,0.00,0,,2013-12-10 02:31:00,
2013-12-09 20:41:00,4.5,-99.9,29.69,SSW,192,4.0,5.4,85,0.00,,,0.00,0,,2013-12-10 02:41:00,
2013-12-09 20:51:00,4.6,-99.9,29.69,West,264,0.0,0.0,85,0.00,,,0.00,0,,2013-12-10 02:51:00,
2013-12-09 21:01:00,4.5,-99.9,29.69,South,191,2.0,3.8,85,0.00,,,0.00,0,,2013-12-10 03:01:00,
2013-12-09 21:11:00,4.4,-99.9,29.70,SE,124,0.0,0.0,85,0.00,,,0.00,0,,2013-12-10 03:11:00,
2013-12-09 21:21:00,4.6,-99.9,29.70,WSW,253,1.0,2.1,85,0.00,,,0.00,0,,2013-12-10 03:21:00,
2013-12-09 21:31:00,4.8,-99.9,29.71,NNW,327,0.0,0.0,85,0.00,,,0.00,0,,2013-12-10 03:31:00,
2013-12-09 21:41:00,4.9,-99.9,29.71,NNW,336,0.0,0.0,86,0.00,,,0.00,0,,2013-12-10 03:41:00,
2013-12-09 21:51:00,4.8,-99.9,29.71,NNW,342,2.0,3.8,86,0.00,,,0.00,0,,2013-12-10 03:51:00,
2013-12-09 22:01:00,4.8,-99.9,29.72,NW,317,1.0,2.1,86,0.00,,,0.00,0,,2013-12-10 04:01:00,
2013-12-09 22:11:00,4.9,-99.9,29.73,NW,318,1.0,3.8,86,0.00,,,0.00,0,,2013-12-10 04:11:00,
2013-12-09 22:21:00,4.9,-99.9,29.73,NW,308,2.0,3.8,85,0.00,,,0.00,0,,2013-12-10 04:21:00,
2013-12-09 22:31:00,4.7,-99.9,29.74,WNW,286,4.0,5.4,85,0.00,,,0.00,0,,2013-12-10 04:31:00,
2013-12-09 22:41:00,4.4,-99.9,29.74,NNW,331,4.0,7.1,85,0.00,,,0.00,0,,2013-12-10 04:41:00,
2013-12-09 22:51:00,3.7,-99.9,29.75,NNW,328,4.0,7.1,85,0.00,,,0.00,0,,2013-12-10 04:51:00,
2013-12-09 23:01:00,3.5,-99.9,29.76,NNW,336,4.0,7.1,85,0.00,,,0.00,0,,2013-12-10 05:01:00,
2013-12-09 23:11:00,2.6,-99.9,29.77,North,1,2.0,5.4,85,0.00,,,0.00,0,,2013-12-10 05:11:00,
2013-12-09 23:21:00,2.1,-99.9,29.79,NNW,333,4.0,7.1,85,0.00,,,0.00,0,,2013-12-10 05:21:00,
2013-12-09 23:31:00,1.6,-99.9,29.79,NNW,331,4.0,5.4,84,0.00,,,0.00,0,,2013-12-10 05:31:00,
2013-12-09 23:41:00,1.1,-99.9,29.80,NW,316,4.0,7.1,84,0.00,,,0.00,0,,2013-12-10 05:41:00,
2013-12-09 23:51:00,0.6,-99.9,29.81,North,0,8.0,13.8,83,0.00,,,0.00,0,,2013-12-10 05:51:00,